Location: Trois-Rivi�res
(46.3500°N, 72.5500°W)
Time: 22:52:27
(UTC-04:00)

Cosmos 1544 - Visible Passes

Search period start: 04 May 2016 00:00
Search period end: 14 May 2016 00:00
Orbit: 482 x 504 km, 82.5° (Epoch: 04 May)

Date Brightness Start Highest point End Pass type
(mag) Time Alt. Az. Time Alt. Az. Time Alt. Az.
04 May 5.8 01:25:25 10° NE 01:27:16 13° ENE 01:27:54 13° ENE visible
04 May 3.6 02:59:14 10° NNW 03:02:25 45° WNW 03:02:25 45° WNW visible
05 May 3.3 02:36:58 10° NNW 02:40:14 63° NW 02:40:14 63° NW visible
06 May 3.5 02:14:47 10° N 02:18:03 63° NNE 02:18:03 63° NNE visible
07 May 4.0 01:52:41 10° N 01:55:53 46° NE 01:55:53 46° NE visible
07 May 5.4 03:29:30 10° WNW 03:30:25 12° WNW 03:30:25 12° WNW visible
08 May 4.6 01:30:39 10° N 01:33:44 32° ENE 01:33:44 32° ENE visible
08 May 5.1 03:06:30 10° NW 03:08:15 17° WNW 03:08:15 17° WNW visible
09 May 5.1 01:08:44 10° NNE 01:11:35 23° ENE 01:11:35 23° ENE visible
09 May 4.7 02:43:52 10° NNW 02:46:07 23° WNW 02:46:07 23° WNW visible
10 May 5.5 00:46:58 10° NNE 00:49:27 17° ENE 00:49:27 17° ENE visible
10 May 4.3 02:21:24 10° NNW 02:23:59 32° WNW 02:23:59 32° WNW visible
11 May 5.8 00:25:35 10° NE 00:27:05 12° ENE 00:27:19 12° ENE visible
11 May 4.0 01:59:02 10° NNW 02:01:51 43° NW 02:01:51 43° NW visible
12 May 3.7 01:36:46 10° N 01:39:43 54° NNW 01:39:43 54° NNW visible
13 May 3.9 01:14:35 10° N 01:17:36 51° NNE 01:17:36 51° NNE visible
